263P/Gibbs (2023)

Japanese version
Home page
Updated on January 15, 2023

---------------------------------------------------------------------

* Profile

* Pictures

* Orbital Elements

Epoch 2022 Aug. 9.0 TT = JDT 2459800.5                                          
T 2023 Jan. 30.57104 TT                                 Rudenko                 
q   1.2364435            (2000.0)            P               Q                  
n   0.18575533     Peri.   35.02513     -0.76091211     -0.61965500             
a   3.0421119      Node   105.51372     +0.54034876     -0.76935993             
e   0.5935575      Incl.   11.52152     +0.35921577     -0.15528356             
P   5.31                                                                        
From 160 observations 2006 Nov. 10-2022 Sept. 22, mean residual 0".7.           

* Finding Charts

* Magnitudes Graph

        m1 = 17.5 + 5 log d + 10.0 log r(t - 50)

---------------------------------------------------------------------

The orbital elements are published on M.P.E.C. 2022-S297.
The charts are made with StellaNavigator Ver.10 (AstroArts).
The magnitudes graphs are made with Comet for Windows.

---------------------------------------------------------------------

Copyright(C) Seiichi Yoshida (comet@aerith.net). All rights reserved.